Location: Stigler
(35.2540°N, 95.1230°W)
Time: 13:26:15
(UTC-06:00)

Daily predictions for brighter satellites

Satellite Brightness Start Highest point End
(mag) Time Altitude Azimuth Time Altitude Azimuth Time Altitude Azimuth
Cosmos 1386 Rocket 4.5 18:28:51 10° S 18:34:58 84° E 18:41:02 10° N
NOAA 12 4.4 18:32:49 10° SE 18:37:53 48° ENE 18:43:00 10° N
Cosmos 1238 Rocket 3.7 18:36:52 10° NE 18:38:53 17° ENE 18:40:55 10° ESE
Cosmos 1975 Rocket 4.4 18:38:10 10° NNW 18:42:17 45° W 18:46:24 10° SSW
GPS 2-04 Rocket1 3.7 18:38:28 10° SW 18:42:25 38° SSE 18:46:27 10° E
SKYMED 2 4.4 18:41:41 10° N 18:45:56 55° WNW 18:50:10 10° SSW
Cosmos 44 4.1 18:43:50 10° NW 18:48:02 48° WSW 18:52:09 10° S
GEOS 3 Rocket 4.0 18:43:07 10° NE 18:48:08 44° ESE 18:53:09 10° S
METEOR-M 4.2 18:43:33 10° SSE 18:48:47 61° ENE 18:54:03 10° N
Cosmos 1536 3.9 18:46:12 10° SE 18:49:23 23° E 18:52:34 10° NE
H-2A R/B 4.3 18:47:31 10° ESE 18:49:40 15° ENE 18:51:49 10° NNE
COSMOS 2428 4.1 18:48:10 10° NNE 18:52:08 19° ENE 18:55:38 11° E
Cosmos 1633 2.6 18:50:08 10° S 18:53:43 55° E 18:57:20 10° NNE
Cosmos 1023 Rocket 4.4 18:49:28 10° S 18:54:28 63° ESE 18:59:32 10° NNE
Meteor 2-4 Rocket 4.5 18:51:00 10° NNE 18:55:41 28° ENE 19:00:16 10° SE
Okean 1 3.3 18:53:02 10° N 18:57:07 90° NNE 19:01:11 10° S
Cosmos 1812 3.7 18:53:33 10° NNW 18:57:18 51° W 19:01:02 10° S
Cosmos 1536 Rocket 3.5 18:56:50 10° N 19:01:19 81° E 19:05:47 10° S
Cosmos 1741 Rocket 4.4 18:56:48 10° S 19:01:41 42° ESE 19:06:35 10° NNE
Cosmos 2219 3.5 19:04:29 10° S 19:09:55 45° ESE 19:15:21 10° NE
Cosmos 2360 Rocket 2.2 19:06:06 10° NNW 19:11:43 60° ENE 19:17:17 10° SSE
Cosmos 2219 Rocket 3.7 19:09:48 10° NNE 19:13:02 15° NE 19:13:35 15° ENE
Meteor 1-11 Rocket 3.8 19:13:54 10° S 19:19:40 86° E 19:25:35 10° N
Cosmos 1570 Rocket 4.4 19:15:31 10° N 19:20:23 38° ENE 19:24:15 15° SE
BREEZE-M DEB (TANK) 2.5 19:17:27 10° SW 19:22:29 80° NW 19:23:46 28° NE
Cosmos 1461 4.4 19:19:07 10° NW 19:22:51 36° WSW 19:26:41 10° S
Cosmos 1602 4.3 19:19:16 10° SSW 19:23:05 61° W 19:26:57 10° N
Cosmos 1140 Rocket 3.9 19:19:57 10° SSW 19:25:01 65° WNW 19:30:09 10° N
Resurs 01 Rocket 1.7 19:20:53 10° SSE 19:25:09 52° ENE 19:29:27 10° N
Cosmos 1300 Rocket 4.0 19:22:01 10° SSW 19:26:23 66° W 19:30:48 10° N
DELTA 2 R/B (1) 3.5 19:22:40 10° WNW 19:28:18 88° NNE 19:31:31 26° ESE
Abrixas rocket 2.1 19:25:14 10° SW 19:28:34 82° SE 19:29:38 40° ENE
ATLAS CENTAUR R/B 2.3 19:25:27 10° SSW 19:30:31 33° SE 19:30:46 33° SE
Cosmos 614 Rocket 4.1 19:27:39 10° SSW 19:32:43 74° WNW 19:37:48 10° NNE
ALOS 2.2 19:29:24 10° SSE 19:34:03 89° WSW 19:38:45 10° NNW
FREGAT/IRIS 4.4 19:33:07 10° SSW 19:35:58 34° W 19:38:49 10° NNW
Cosmos 2327 Rocket 4.4 19:30:51 10° S 19:36:55 62° E 19:43:08 10° NNE
Spot 2 Rocket 3.3 19:35:01 10° SSE 19:40:02 75° ENE 19:45:06 10° N
Helios 1A 3.6 19:40:56 36° NE 19:40:56 36° NE 19:44:13 10° N
Resurs 1-3 3.5 19:38:30 10° SSE 19:42:51 71° ENE 19:47:14 10° N
Cosmos 1340 4.4 19:39:54 10° NNW 19:43:22 35° W 19:46:48 10° SSW
Cosmos 2181 Rocket 4.5 19:38:58 10° NNW 19:45:09 64° W 19:51:25 10° S
Cosmos 2333 Rocket 3.5 19:42:33 10° N 19:46:14 23° NE 19:46:14 23° NE
Cosmos 2208 Rocket 4.0 19:42:05 10° N 19:47:31 65° ENE 19:50:30 26° SE
USA 229 DEB 4.1 19:45:52 10° NNW 19:52:40 44° NE 19:54:32 37° E
USA 229 4.1 19:45:58 10° NNW 19:52:45 44° NE 19:54:36 37° E
OTV 4 2.9 19:52:01 10° SSW 19:52:48 15° SSW 19:52:48 15° SSW
Helios 1B rocket 2.3 19:54:33 40° NNE 19:55:59 75° E 20:00:07 10° S
Cosmos 2074 Rocket 4.0 19:50:06 10° S 19:56:21 84° W 20:02:39 10° N
Envisat 4.4 19:58:41 23° NNE 19:58:41 23° NNE 20:00:58 10° N
Tiangong 2 3.0 19:56:03 10° W 19:58:32 24° SW 19:58:32 24° SW
Cosmos 2184 Rocket 4.0 19:53:04 10° S 19:59:23 83° W 20:05:42 10° N
Genesis I 3.6 20:00:00 10° NNW 20:03:08 54° NNW 20:03:08 54° NNW
Meteor 1-5 Rocket 4.5 20:00:59 10° SSW 20:06:56 74° W 20:12:53 10° N
Hubble Space Telescope 2.7 20:04:43 10° SW 20:06:46 20° SSW 20:06:46 20° SSW
BREEZE-M DEB (TANK) 3.0 20:14:12 10° NW 20:17:19 72° NNE 20:17:19 72° NNE
CZ-2D R/B 4.2 20:18:53 45° WNW 20:18:53 45° WNW 20:22:09 10° NNW
GPS 2-04 Rocket1 3.7 20:17:49 10° W 20:21:01 49° WSW 20:21:01 49° WSW
Nadezhda 3 Rocket 4.2 20:16:37 10° N 20:21:26 51° NE 20:21:26 51° NE
Cosmos 1025 Rocket 4.1 20:19:58 10° NNW 20:24:10 45° W 20:25:45 31° SW
Atlas Centaur 2 4.2 20:23:39 10° SSW 20:26:14 17° S 20:26:14 17° S
Cosmos 2154 Rocket 3.9 20:22:00 10° S 20:28:21 87° E 20:34:44 10° N
Cosmos 2285 Rocket 4.0 20:25:17 10° NNW 20:31:44 83° WSW 20:32:48 64° S
COSMOS 2428 3.2 20:31:12 10° NNW 20:36:45 56° WSW 20:37:44 49° SW
Cosmos 2333 4.5 20:32:25 10° NNW 20:38:06 64° WSW 20:38:23 63° SW
Cosmos 2237 Rocket 3.8 20:35:20 10° N 20:37:45 25° N 20:37:45 25° N
Cosmos 2219 Rocket 3.3 20:51:56 10° NNW 20:55:22 38° NW 20:55:22 38° NW
Cosmos 2227 Rocket 4.3 20:54:20 10° SSW 20:55:24 16° SSW 20:55:24 16° SSW
Cosmos 2333 Rocket 4.3 21:26:07 10° NW 21:28:17 22° NW 21:28:17 22° NW
